Stündliche Wetter Waris Aliganj

Heute, 25 Oktober, Sonntag

Zeit Temperatur Niederschläge Wind Luftdruck Luftfeuchtigkeit
00:00 +25°C° 0 mm 1 m/S 750 mmHg 56%
01:00 +25°C° 0 mm 1 m/S 750 mmHg 56%
02:00 +25°C° 0 mm 1 m/S 750 mmHg 57%
03:00 +24°C° 0 mm 1 m/S 750 mmHg 57%
04:00 +24°C° 0 mm 1 m/S 750 mmHg 58%
05:00 +23°C° 0 mm 2 m/S 750 mmHg 59%
06:00 +23°C° 0 mm 2 m/S 750 mmHg 59%
07:00 +24°C° 0 mm 2 m/S 751 mmHg 57%
08:00 +26°C° 0 mm 2 m/S 752 mmHg 54%
09:00 +27°C° 0 mm 2 m/S 752 mmHg 51%
10:00 +29°C° 0 mm 1 m/S 752 mmHg 47%
11:00 +30°C° 0 mm 1 m/S 752 mmHg 44%
12:00 +32°C° 0 mm 1 m/S 751 mmHg 41%
13:00 +32°C° 0 mm 1 m/S 751 mmHg 39%
14:00 +33°C° 0 mm 1 m/S 750 mmHg 37%
15:00 +33°C° 0 mm 1 m/S 749 mmHg 35%
16:00 +31°C° 0 mm 2 m/S 749 mmHg 39%
17:00 +29°C° 0 mm 2 m/S 749 mmHg 43%
18:00 +28°C° 0 mm 2 m/S 749 mmHg 47%
19:00 +27°C° 0 mm 2 m/S 749 mmHg 48%
20:00 +26°C° 0 mm 2 m/S 750 mmHg 50%
21:00 +25°C° 0 mm 2 m/S 750 mmHg 51%
22:00 +25°C° 0 mm 2 m/S 750 mmHg 51%
23:00 +24°C° 0 mm 2 m/S 750 mmHg 52%

Morgen, 26 Oktober, Montag

Zeit Temperatur Niederschläge Wind Luftdruck Luftfeuchtigkeit
00:00 +24°C° 0 mm 2 m/S 750 mmHg 53%
01:00 +23°C° 0 mm 2 m/S 750 mmHg 53%
02:00 +23°C° 0 mm 1 m/S 750 mmHg 54%
03:00 +22°C° 0 mm 1 m/S 750 mmHg 54%
04:00 +22°C° 0 mm 1 m/S 750 mmHg 55%
05:00 +22°C° 0 mm 1 m/S 750 mmHg 56%
06:00 +20°C° 0 mm 2 m/S 750 mmHg 57%
07:00 +23°C° 0 mm 2 m/S 751 mmHg 55%
08:00 +24°C° 0 mm 2 m/S 752 mmHg 54%
09:00 +26°C° 0 mm 3 m/S 752 mmHg 52%
10:00 +28°C° 0 mm 3 m/S 752 mmHg 47%
11:00 +30°C° 0 mm 3 m/S 752 mmHg 42%
12:00 +31°C° 0 mm 3 m/S 751 mmHg 37%
13:00 +33°C° 0 mm 3 m/S 751 mmHg 36%
14:00 +33°C° 0 mm 3 m/S 750 mmHg 35%
15:00 +33°C° 0 mm 3 m/S 749 mmHg 35%
16:00 +30°C° 0 mm 3 m/S 749 mmHg 41%
17:00 +28°C° 0 mm 3 m/S 749 mmHg 46%
18:00 +26°C° 0 mm 3 m/S 749 mmHg 52%
19:00 +26°C° 0 mm 2 m/S 749 mmHg 53%
20:00 +25°C° 0 mm 2 m/S 750 mmHg 54%
21:00 +24°C° 0 mm 2 m/S 750 mmHg 56%
22:00 +24°C° 0 mm 2 m/S 750 mmHg 56%
23:00 +23°C° 0 mm 2 m/S 750 mmHg 57%

übermorgen, 27 Oktober, Dienstag

Zeit Temperatur Niederschläge Wind Luftdruck Luftfeuchtigkeit
00:00 +23°C° 0 mm 2 m/S 750 mmHg 58%
01:00 +21°C° 0 mm 2 m/S 750 mmHg 58%
02:00 +21°C° 0 mm 2 m/S 750 mmHg 58%
03:00 +20°C° 0 mm 2 m/S 749 mmHg 58%
04:00 +20°C° 0 mm 2 m/S 750 mmHg 58%
05:00 +20°C° 0 mm 2 m/S 750 mmHg 57%
06:00 +20°C° 0 mm 2 m/S 750 mmHg 57%
07:00 +21°C° 0 mm 2 m/S 750 mmHg 54%
08:00 +24°C° 0 mm 2 m/S 751 mmHg 51%
09:00 +26°C° 0 mm 2 m/S 751 mmHg 47%
10:00 +28°C° 0 mm 2 m/S 751 mmHg 44%
11:00 +30°C° 0 mm 2 m/S 751 mmHg 40%
12:00 +31°C° 0 mm 2 m/S 751 mmHg 36%
13:00 +32°C° 0 mm 2 m/S 750 mmHg 35%
14:00 +32°C° 0 mm 2 m/S 750 mmHg 33%
15:00 +32°C° 0 mm 2 m/S 749 mmHg 32%
16:00 +30°C° 0 mm 2 m/S 749 mmHg 37%
17:00 +28°C° 0 mm 2 m/S 749 mmHg 42%
18:00 +26°C° 0 mm 2 m/S 750 mmHg 47%
19:00 +25°C° 0 mm 2 m/S 750 mmHg 49%
20:00 +25°C° 0 mm 1 m/S 750 mmHg 50%
21:00 +24°C° 0 mm 1 m/S 751 mmHg 51%
22:00 +23°C° 0 mm 1 m/S 751 mmHg 52%
23:00 +23°C° 0 mm 1 m/S 750 mmHg 52%

28 Oktober, Mittwoch

Zeit Temperatur Niederschläge Wind Luftdruck Luftfeuchtigkeit
00:00 +23°C° 0 mm 1 m/S 750 mmHg 53%
01:00 +22°C° 0 mm 1 m/S 750 mmHg 53%
02:00 +22°C° 0 mm 1 m/S 750 mmHg 54%
03:00 +21°C° 0 mm 1 m/S 750 mmHg 54%
04:00 +21°C° 0 mm 1 m/S 750 mmHg 55%
05:00 +21°C° 0 mm 1 m/S 750 mmHg 55%
06:00 +20°C° 0 mm 1 m/S 751 mmHg 55%
07:00 +22°C° 0 mm 1 m/S 751 mmHg 53%
08:00 +24°C° 0 mm 1 m/S 752 mmHg 50%
09:00 +26°C° 0 mm 1 m/S 752 mmHg 47%
10:00 +27°C° 0 mm 1 m/S 752 mmHg 43%
11:00 +29°C° 0 mm 1 m/S 752 mmHg 40%
12:00 +30°C° 0 mm 1 m/S 752 mmHg 36%
13:00 +31°C° 0 mm 1 m/S 751 mmHg 35%
14:00 +31°C° 0 mm 1 m/S 750 mmHg 33%
15:00 +31°C° 0 mm 1 m/S 750 mmHg 32%
16:00 +30°C° 0 mm 1 m/S 750 mmHg 36%
17:00 +28°C° 0 mm 1 m/S 750 mmHg 41%
18:00 +26°C° 0 mm 1 m/S 750 mmHg 45%
19:00 +25°C° 0 mm 1 m/S 750 mmHg 46%
20:00 +24°C° 0 mm 1 m/S 750 mmHg 48%
21:00 +24°C° 0 mm 1 m/S 751 mmHg 50%
22:00 +23°C° 0 mm 1 m/S 751 mmHg 51%
23:00 +22°C° 0 mm 1 m/S 751 mmHg 53%

29 Oktober, Donnerstag

Zeit Temperatur Niederschläge Wind Luftdruck Luftfeuchtigkeit
00:00 +21°C° 0 mm 2 m/S 751 mmHg 55%
01:00 +20°C° 0 mm 2 m/S 751 mmHg 56%
02:00 +20°C° 0 mm 2 m/S 751 mmHg 58%
03:00 +21°C° 0 mm 1 m/S 751 mmHg 59%
04:00 +20°C° 0 mm 1 m/S 751 mmHg 60%
05:00 +20°C° 0 mm 1 m/S 751 mmHg 61%
06:00 +20°C° 0 mm 1 m/S 752 mmHg 62%
07:00 +21°C° 0 mm 1 m/S 752 mmHg 59%
08:00 +23°C° 0 mm 2 m/S 752 mmHg 56%
09:00 +25°C° 0 mm 2 m/S 753 mmHg 52%
10:00 +26°C° 0 mm 2 m/S 753 mmHg 48%
11:00 +28°C° 0 mm 2 m/S 752 mmHg 43%
12:00 +30°C° 0 mm 2 m/S 752 mmHg 38%
13:00 +30°C° 0 mm 2 m/S 751 mmHg 35%
14:00 +31°C° 0 mm 2 m/S 751 mmHg 32%
15:00 +31°C° 0 mm 1 m/S 750 mmHg 29%
16:00 +29°C° 0 mm 1 m/S 750 mmHg 33%
17:00 +27°C° 0 mm 1 m/S 750 mmHg 37%
18:00 +25°C° 0 mm 1 m/S 750 mmHg 41%
19:00 +25°C° 0 mm 2 m/S 750 mmHg 42%
20:00 +24°C° 0 mm 2 m/S 751 mmHg 42%
21:00 +24°C° 0 mm 2 m/S 751 mmHg 43%
22:00 +23°C° 0 mm 2 m/S 751 mmHg 45%
23:00 +23°C° 0 mm 2 m/S 751 mmHg 47%

30 Oktober, Freitag

Zeit Temperatur Niederschläge Wind Luftdruck Luftfeuchtigkeit
00:00 +21°C° 0 mm 2 m/S 751 mmHg 49%
01:00 +21°C° 0 mm 2 m/S 751 mmHg 52%
02:00 +21°C° 0 mm 2 m/S 750 mmHg 54%
03:00 +20°C° 0 mm 2 m/S 750 mmHg 57%
04:00 +20°C° 0 mm 2 m/S 750 mmHg 60%
05:00 +20°C° 0 mm 2 m/S 750 mmHg 64%
06:00 +20°C° 0 mm 2 m/S 751 mmHg 67%
07:00 +21°C° 0 mm 2 m/S 751 mmHg 64%
08:00 +24°C° 0 mm 2 m/S 751 mmHg 60%
09:00 +26°C° 0 mm 3 m/S 752 mmHg 57%
10:00 +27°C° 0 mm 3 m/S 752 mmHg 52%
11:00 +29°C° 0 mm 3 m/S 751 mmHg 48%
12:00 +31°C° 0 mm 3 m/S 751 mmHg 44%
13:00 +31°C° 0 mm 2 m/S 750 mmHg 42%
14:00 +31°C° 0 mm 2 m/S 750 mmHg 40%
15:00 +32°C° 0 mm 2 m/S 749 mmHg 38%
16:00 +30°C° 0 mm 2 m/S 749 mmHg 42%
17:00 +28°C° 0 mm 2 m/S 749 mmHg 46%
18:00 +26°C° 0 mm 2 m/S 749 mmHg 50%
19:00 +26°C° 0 mm 2 m/S 749 mmHg 51%
20:00 +25°C° 0 mm 2 m/S 749 mmHg 52%
21:00 +24°C° 0 mm 2 m/S 750 mmHg 53%
22:00 +23°C° 0 mm 2 m/S 750 mmHg 54%
23:00 +23°C° 0 mm 2 m/S 750 mmHg 55%
Mehr zeigen

Wir brauchen deine Erlaubnis

Meteoprog und unser Service Anbieter werden persönliche Daten aufbewahren, so wie Cookies, Geräte Bezeichnung oder ähnliche Technologien von deinem Gerät und Prozess, so wie Persönliche Daten Inhalte und Werbungen, genauso wie social Media und den Verkehr zu analysieren.

  • Aufbewahrung und/oder Zugang zu deiner Geräte Informationen.

    Cookies, Geräte Bezeichnung oder andere Informationen, können aufbewahrt oder Zugang zu deinem Gerät erhalten, für den Grund, der oben angegeben wird.

  • Personalisierte Werbung und Inhalte, Messungen, Einblick in das Publikum und Produkt Entwicklung.

    Werbungen und Inhalte können personalisiert werden, basierend auf ein Profil. Mehr Daten können besser personalisierte Werbungen und Inhalte hinzufügen. Werbung und Inhalte können gezeigt und gemessen werden. Einblicke über das Publikum, welche die Werbung gesehen haben und den Inhalt, können abgeleitet werden. So wie Daten können genutzt werden, um es zu verbessern oder die Benutzer Erfahrung zu verbessern das System und die Software.

Wenn du “Ich stimme zu” klickst, erlaubst du uns, die Cookies zu benutzen die Geräte Bezeichnung, den Web oder ähnliche Technologien zu benutzen. Deine Settings, können in deinem Gerät bei deinem Browser geändert werden.

Für den bestimmten Zweck, berechtigten Interessen beruhen darauf, mehr als auf den Inhalt. Du kannst mehr darüber in unseren Privaten und Cookie Politik lesen.